Glasgow, KY

11:56 PM CST on December 12, 2017 (GMT -0600)
Glasgow Municipal

Weather History for KGLW - February, 2012

Change the Weather History Date:

Wednesday, February 8, 2012

  Actual Average Record
Temperature  
Mean Temperature 38 °F -  
Max Temperature 41 °F 42 °F 69 °F (2009)
Min Temperature 35 °F 22 °F 1 °F (1979)
Degree Days  
Heating Degree Days 27    
Moisture  
Dew Point 33 °F    
Average Humidity 85    
Maximum Humidity 100    
Minimum Humidity 69    
Precipitation  
Precipitation 0.00 in - - ()
Sea Level Pressure  
Sea Level Pressure 30.29 in    
Wind  
Wind Speed - (North)    
Max Wind Speed -    
Max Gust Speed -    
Visibility 6 miles    
Events Rain    
Averages and records for this station are not official NWS values.
T = Trace of Precipitation, MM = Missing Value Source: NWS Daily Summary

Daily Weather History Graph

Daily Weather History Graph

Search for Another Location

Airport or City:

Trip Planner

Search our weather history database for the weather conditions in past years. The results will help you decide how hot, cold, wet, or windy it might be!

Date:

Astronomy

Feb. 08, 2012 Rise Set
Actual Time 6:40 AM CST 5:15 PM CST
Civil Twilight 6:13 AM CST 5:42 PM CST
Nautical Twilight 5:42 AM CST 6:13 PM CST
Astronomical Twilight 5:12 AM CST 6:44 PM CST
Moon 6:31 PM CST (2/8) 6:45 AM CST (2/8)
Length of Visible Light 11h 29m
Length of Day
10h 35m
Full, 99% of the Moon is Illuminated
Feb 8
Full
Feb 14
Last Quarter
Feb 21
New
Feb 29
First Quarter
Mar 8
Full

Hourly Weather History & Observations

Time (CST) Temp. Dew Point Humidity Pressure Visibility Wind Dir Wind Speed Gust Speed Precip Events Conditions
12:15 AM 41.4 °F 32.0 °F 69% 30.22 in 10.0 mi North - - N/A   Overcast
12:35 AM 41.0 °F 32.4 °F 71% 30.23 in 10.0 mi North - - N/A   Overcast
12:55 AM 41.0 °F 32.9 °F 73% 30.24 in 10.0 mi North - - N/A   Light Drizzle
1:15 AM 40.5 °F 32.9 °F 74% 30.24 in 10.0 mi North - - N/A   Overcast
1:35 AM 40.1 °F 32.5 °F 74% 30.24 in 10.0 mi North - - N/A   Light Drizzle
1:55 AM 39.7 °F 32.5 °F 75% 30.24 in 10.0 mi North - - N/A   Overcast
2:15 AM 39.4 °F 32.5 °F 76% 30.23 in 10.0 mi North - - N/A   Overcast
2:35 AM 39.4 °F 32.4 °F 76% 30.24 in 7.0 mi North - - N/A Rain Light Rain
2:55 AM 38.7 °F 33.4 °F 81% 30.23 in 7.0 mi North - - N/A Rain Rain
3:15 AM 37.9 °F 34.2 °F 86% 30.23 in 7.0 mi North - - N/A Rain Light Rain
3:35 AM 37.2 °F 34.7 °F 91% 30.23 in 5.0 mi North - - N/A Rain Rain
3:55 AM 36.7 °F 36.7 °F 100% 30.23 in 5.0 mi North - - N/A   Drizzle
4:15 AM 36.5 °F 36.7 °F 100% 30.23 in 5.0 mi North - - N/A   Light Drizzle
4:35 AM - - N/A% 30.23 in 5.0 mi North - - N/A   Overcast
4:55 AM 36.0 °F 36.1 °F 100% 30.23 in 5.0 mi North - - N/A   Overcast
5:15 AM 35.8 °F 36.0 °F 100% 30.24 in 5.0 mi North - - N/A   Light Drizzle
5:55 AM 36.0 °F 36.1 °F 100% 30.25 in 5.0 mi North - - N/A   Overcast
6:15 AM 35.8 °F 36.0 °F 100% 30.26 in 5.0 mi North - - N/A   Light Drizzle
6:55 AM 36.0 °F 36.1 °F 100% 30.27 in 3.0 mi North - - N/A   Drizzle
7:15 AM 36.0 °F 36.1 °F 100% 30.28 in 3.0 mi North - - N/A   Light Drizzle
7:35 AM 36.1 °F 36.3 °F 100% 30.28 in 3.0 mi North - - N/A   Overcast
7:55 AM - - N/A% 30.29 in 2.5 mi North - - N/A   Overcast
8:15 AM 36.5 °F 36.5 °F 100% 30.29 in 2.5 mi North - - N/A   Overcast
8:35 AM 36.5 °F 36.7 °F 100% 30.30 in 3.0 mi North - - N/A   Overcast
8:55 AM 36.5 °F 36.7 °F 100% 30.29 in 3.0 mi North - - N/A   Overcast
9:15 AM 36.7 °F 36.9 °F 100% 30.30 in 4.0 mi North - - N/A   Overcast
9:35 AM 36.7 °F 36.9 °F 100% 30.31 in 4.0 mi North - - N/A   Overcast
9:55 AM 36.7 °F 36.9 °F 100% 30.31 in 4.0 mi North - - N/A   Overcast
10:15 AM 37.0 °F 37.2 °F 100% 30.33 in 5.0 mi North - - N/A   Overcast
10:35 AM 37.2 °F 37.4 °F 100% 30.32 in 5.0 mi North - - N/A   Overcast
10:55 AM 37.2 °F 35.4 °F 93% 30.33 in 5.0 mi North - - N/A   Overcast
11:15 AM 36.9 °F 34.0 °F 89% 30.33 in 5.0 mi North - - N/A   Overcast
11:35 AM 36.5 °F 32.5 °F 86% 30.32 in 5.0 mi North - - N/A   Overcast
11:55 AM 37.2 °F 31.6 °F 80% 30.31 in 7.0 mi North - - N/A   Overcast
12:15 PM 38.1 °F 31.5 °F 77% 30.30 in 7.0 mi North - - N/A   Overcast
12:35 PM 38.1 °F 30.4 °F 74% 30.30 in 7.0 mi North - - N/A   Overcast
12:55 PM 38.5 °F 30.0 °F 72% 30.29 in 7.0 mi North - - N/A   Overcast
1:15 PM 39.0 °F 29.8 °F 70% 30.29 in 7.0 mi North - - N/A   Overcast
1:35 PM 38.7 °F 29.8 °F 71% 30.29 in 7.0 mi North - - N/A   Overcast
1:55 PM 38.5 °F 29.3 °F 70% 30.29 in 7.0 mi North - - N/A   Overcast
2:15 PM 38.1 °F 29.5 °F 71% 30.29 in 7.0 mi North - - N/A   Overcast
2:35 PM 38.1 °F 29.7 °F 72% 30.31 in 7.0 mi North - - N/A   Overcast
2:55 PM 37.9 °F 29.8 °F 73% 30.31 in 5.0 mi North - - N/A   Haze
3:15 PM 37.9 °F 29.5 °F 72% 30.31 in 7.0 mi North - - N/A   Overcast
3:35 PM 37.8 °F 29.3 °F 72% 30.31 in 5.0 mi North - - N/A   Haze
3:55 PM 37.4 °F 29.5 °F 73% 30.32 in 5.0 mi North - - N/A   Haze
4:15 PM 36.9 °F 30.4 °F 77% 30.32 in 5.0 mi North - - N/A   Light Drizzle
4:35 PM 36.5 °F 30.9 °F 80% 30.32 in 5.0 mi North - - N/A   Light Drizzle
4:55 PM 36.3 °F 30.9 °F 81% 30.32 in 5.0 mi North - - N/A   Haze
5:15 PM 36.3 °F 30.9 °F 81% 30.31 in 5.0 mi North - - N/A   Haze
5:35 PM 36.0 °F 31.5 °F 84% 30.32 in 5.0 mi North - - N/A   Light Drizzle
5:55 PM 35.8 °F 31.6 °F 85% 30.32 in 5.0 mi North - - N/A   Overcast
6:15 PM 35.8 °F 31.6 °F 85% 30.33 in 7.0 mi North - - N/A   Overcast
6:35 PM 35.8 °F 31.6 °F 85% 30.33 in 7.0 mi North - - N/A   Overcast
6:55 PM 35.6 °F 31.3 °F 84% 30.33 in 7.0 mi North - - N/A   Overcast
7:15 PM 35.6 °F 31.1 °F 84% 30.33 in 7.0 mi North - - N/A   Overcast
7:35 PM 35.6 °F 31.3 °F 84% 30.34 in 7.0 mi North - - N/A   Overcast
7:55 PM 35.6 °F 31.1 °F 84% 30.33 in 10.0 mi North - - N/A   Overcast
8:15 PM 35.6 °F 31.1 °F 84% 30.34 in 10.0 mi North - - N/A   Overcast
8:35 PM 35.4 °F 31.1 °F 84% 30.34 in 7.0 mi North - - N/A   Overcast
8:55 PM 34.9 °F 32.0 °F 89% 30.35 in 4.0 mi North - - N/A Rain Light Rain
9:15 PM 34.3 °F 34.5 °F 100% 30.35 in 4.0 mi North - - N/A   Drizzle
9:35 PM - - N/A% 30.35 in 7.0 mi North - - N/A   Overcast
9:55 PM 34.7 °F 34.7 °F 100% 30.34 in 7.0 mi North - - N/A   Overcast
10:15 PM 34.7 °F 34.7 °F 100% 30.34 in 7.0 mi North - - N/A   Overcast
10:35 PM 34.7 °F 34.9 °F 100% 30.34 in 10.0 mi North - - N/A   Overcast
10:55 PM 34.7 °F 34.5 °F 99% 30.34 in 10.0 mi North - - N/A   Overcast
11:15 PM 34.7 °F 34.9 °F 100% 30.34 in 10.0 mi North - - N/A   Overcast
11:35 PM 34.7 °F 34.5 °F 99% 30.34 in 10.0 mi North - - N/A   Overcast
11:55 PM 34.5 °F 33.8 °F 97% 30.33 in 10.0 mi North - - N/A   Overcast